Miscellaneous Local Product
Issued by NWS Hastings, NE

Home | Current Version | Previous Version | Graphics & Text | Print | Product List | Glossary On
Versions: 1 2 3 4 5 6 7 8 9 10 11 12 13 14 15 16 17 18 19 20 21 22 23 24 25 26 27 28 29 30 31 32 33 34 35 36 37 38 39 40 41 42 43 44 45 46 47 48 49 50
928
AXUS43 KGID 121702
MISGRI

GID CWA HOURLY WEATHER ROUNDUP
NATIONAL WEATHER SERVICE HASTINGS NE
1100 AM CST FRI FEB 12 2016

NOTE: "FAIR" INDICATES FEW OR NO CLOUDS BELOW 12,000 FEET WITH NO
SIGNIFICANT WEATHER AND/OR OBSTRUCTIONS TO VISIBILITY.

...SOUTH CENTRAL NEBRASKA...

CITY           SKY/WX    TMP DP  RH WIND       PRES   REMARKS
GRAND ISLAND   CLOUDY    27  23  85 NE8       30.46R WCI  19
HASTINGS       CLOUDY    31  24  75 N10       30.45R WCI  22
KEARNEY        CLOUDY    30  25  80 N9        30.44R WCI  22
ORD            CLOUDY    25  23  92 NE13      30.46R FOG     WCI  14
YORK           CLOUDY    27  25  93 N13       30.47R WCI  16
AURORA         CLOUDY    27  23  83 N9        30.45R WCI  18
LEXINGTON      CLOUDY    35  29  80 N12       30.43R WCI  26
HOLDREGE       CLOUDY    32  28  85 NE7       30.42R WCI  26
HEBRON         CLOUDY    30  25  80 N9        30.47R WCI  22

...NEBRASKA PANHANDLE...

CITY           SKY/WX    TMP DP  RH WIND       PRES   REMARKS
CHADRON        CLOUDY    33  29  85 E5        30.40S WCI  29
ALLIANCE       CLOUDY    30  29  96 NE10      30.36S WCI  21
SCOTTSBLUFF    CLOUDY    35  29  78 NE15      30.37R WCI  25
SIDNEY         CLOUDY    40  31  70 NE15      30.35R WCI  32

...WESTERN AND NORTH CENTRAL NEBRASKA...

CITY           SKY/WX    TMP DP  RH WIND       PRES   REMARKS
VALENTINE      CLOUDY    24  19  81 NE8       30.46R WCI  15
AINSWORTH      CLOUDY    24  21  87 N9        30.45R WCI  14
ONEILL         CLOUDY    21  16  82 N12G17    30.49R WCI   9
BROKEN BOW     CLOUDY    31  27  85 N12       30.42R WCI  22
IMPERIAL       CLOUDY    33  30  88 E9        30.40R WCI  25
NORTH PLATTE   CLOUDY    35  29  78 N9        30.41R WCI  28
MCCOOK         CLOUDY    33  29  85 E6        30.43R WCI  28

...EASTERN NEBRASKA...

CITY           SKY/WX    TMP DP  RH WIND       PRES   REMARKS
NORFOLK        CLOUDY    22  14  71 N13       30.49R WCI  10
SO SIOUX CITY  MOSUNNY   21  11  65 N15       30.53R WCI   8
TEKAMAH        SUNNY     22  12  65 N17       30.52R WCI   8
COLUMBUS       CLOUDY    25  10  54 N14       30.49R WCI  13
ALBION         CLOUDY    22  17  81 N13       30.48R WCI  10
OMAHA EPPLEY   CLOUDY    24  15  68 N22       30.49R WCI   9
MILLARD        CLOUDY    25  16  69 N7G17     30.50R WCI  17
LINCOLN        CLOUDY    27  20  75 N17       30.50R WCI  14
NEBRASKA CITY  CLOUDY    25  18  75 N16G22    30.47R WCI  12
BEATRICE       CLOUDY    28  22  78 N10       30.47R WCI  18
FALLS CITY     CLOUDY    29  18  63 N16       30.46R WCI  17

...NORTHERN KANSAS...

CITY           SKY/WX    TMP DP  RH WIND       PRES   REMARKS
GOODLAND       MOSUNNY   43  31  62 E9        30.36R
HILL CITY      CLOUDY    35  30  82 NE10      30.44R WCI  27
NORTON         CLOUDY    34  27  75 NE6       30.43R WCI  29
PHILLIPSBURG   CLOUDY    34  28  80 CALM      30.46R
SMITH CENTER   CLOUDY    32  27  80 NE8       30.46R WCI  25
BELOIT         CLOUDY    30  25  80 N9        30.47R WCI  22
HAYS           CLOUDY    32  21  64 NE15      30.45R WCI  22
RUSSELL        CLOUDY    30  27  88 NE14      30.43R WCI  19
CONCORDIA      CLOUDY    30  24  78 N8        30.47R WCI  22
SALINA         CLOUDY    34  25  69 NE15      30.47R WCI  24
TOPEKA         CLOUDY    34  22  61 N10       30.46R WCI  26



USA.gov is the U.S. government's official web portal to all federal, state and local government web resources and services.